Terminal Aerodrome Forecast
Issued by NWS Riverton, WY

Home | Current Version | Previous Version | Text Only | Print | Product List | Glossary On
Versions: 1 2 3 4 5 6 7 8 9 10 11 12 13 14
000
FTUS45 KRIW 192300
TAFRIW
TAF
KRIW 192320Z 2000/2024 30010G20KT P6SM SKC
     FM200300 35010KT P6SM SKC
     FM200900 30007KT P6SM FEW110
     FM201600 VRB04KT P6SM SKC=

USA.gov is the U.S. government's official web portal to all federal, state and local government web resources and services.